TimeEDT,TemperatureF,Dew PointF,Humidity,Sea Level PressureIn,VisibilityMPH,Wind Direction,Wind SpeedMPH,Gust SpeedMPH,PrecipitationIn,Events,Conditions,WindDirDegrees,DateUTC
12:53 AM,69.1,54.0,58,29.96,10.0,Calm,Calm,-,N/A,,Clear,0,2013-04-11 04:53:00
1:53 AM,66.0,54.0,65,29.96,10.0,Calm,Calm,-,N/A,,Clear,0,2013-04-11 05:53:00
2:53 AM,64.9,55.0,70,29.95,10.0,South,6.9,-,N/A,,Clear,190,2013-04-11 06:53:00
3:53 AM,64.0,55.9,75,29.94,10.0,SSW,5.8,-,N/A,,Clear,200,2013-04-11 07:53:00
4:53 AM,62.1,57.0,84,29.94,10.0,SW,4.6,-,N/A,,Clear,220,2013-04-11 08:53:00
5:53 AM,61.0,57.0,87,29.95,10.0,West,3.5,-,N/A,,Clear,260,2013-04-11 09:53:00
6:49 AM,60.8,57.2,88,29.98,10.0,Calm,Calm,-,N/A,,Mostly Cloudy,0,2013-04-11 10:49:00
6:53 AM,61.0,57.0,87,29.96,10.0,Calm,Calm,-,N/A,,Mostly Cloudy,0,2013-04-11 10:53:00
7:53 AM,62.1,57.9,86,29.97,10.0,West,4.6,-,N/A,,Overcast,270,2013-04-11 11:53:00
8:53 AM,64.0,59.0,84,29.98,10.0,SW,5.8,-,N/A,,Overcast,230,2013-04-11 12:53:00
9:53 AM,66.0,60.1,81,29.97,10.0,SW,6.9,-,N/A,,Overcast,220,2013-04-11 13:53:00
10:18 AM,66.2,60.8,83,29.99,10.0,SW,5.8,-,N/A,,Mostly Cloudy,230,2013-04-11 14:18:00
10:49 AM,69.8,60.8,73,29.99,10.0,SSW,8.1,-,N/A,,Mostly Cloudy,200,2013-04-11 14:49:00
10:53 AM,70.0,60.1,71,29.97,10.0,SSW,6.9,-,N/A,,Mostly Cloudy,200,2013-04-11 14:53:00
11:11 AM,71.6,60.8,69,29.99,10.0,Variable,5.8,-,N/A,,Mostly Cloudy,0,2013-04-11 15:11:00
11:53 AM,73.9,57.9,57,29.95,10.0,SW,10.4,17.3,N/A,,Scattered Clouds,220,2013-04-11 15:53:00
1:53 PM,78.1,57.0,48,29.89,10.0,SSW,11.5,-,N/A,,Mostly Cloudy,200,2013-04-11 17:53:00
3:53 PM,80.1,57.9,47,29.83,10.0,SW,8.1,-,N/A,,Mostly Cloudy,230,2013-04-11 19:53:00
4:53 PM,79.0,60.1,52,29.78,10.0,South,13.8,-,0.00,Rain,Light Rain,190,2013-04-11 20:53:00
5:53 PM,78.1,60.1,54,29.78,10.0,South,10.4,-,0.00,,Overcast,180,2013-04-11 21:53:00
6:53 PM,73.0,63.0,71,29.77,10.0,South,9.2,-,0.00,,Mostly Cloudy,190,2013-04-11 22:53:00
7:53 PM,72.0,63.0,73,29.75,10.0,SSE,5.8,-,N/A,,Mostly Cloudy,160,2013-04-11 23:53:00
8:53 PM,70.0,64.9,84,29.74,10.0,SSE,9.2,-,0.02,Rain,Light Rain,160,2013-04-12 00:53:00
9:53 PM,69.1,64.9,87,29.73,10.0,South,11.5,-,N/A,,Clear,170,2013-04-12 01:53:00
10:53 PM,69.1,64.9,87,29.73,7.0,South,8.1,-,0.01,Rain,Rain,180,2013-04-12 02:53:00
11:53 PM,69.1,66.0,90,29.73,6.0,South,18.4,24.2,0.03,Rain-Thunderstorm,Light Rain,170,2013-04-12 03:53:00